User: anonymous   Login
Location: Fort Wayne
(41.1310°N, 85.1290°W)
Time: 17:29:31
(UTC-05:00)
Language:

Cosmos 1953 - Orbit

View from above orbital plane
View from above orbital plane
View from above satellite
View from above satellite

Ground track
Ground track

The orbit data is extracted from the following two-line orbital elements,

1 19210U 88050A   15063.19308904  .00002485  00000-0  18041-3 0  9999
2 19210 082.5189 123.0161 0013220 223.1509 136.8681 15.03423765452136
Epoch (UTC): 04 March 2015 04:38:02
Eccentricity: 0.0013220
inclination: 82.5189°
perigee height: 547 km
apogee height: 565 km
right ascension of ascending node: 123.0161°
argument of perigee: 223.1509°
revolutions per day: 15.03423765
mean anomaly at epoch: 136.8681°
orbit number at epoch: 45213

The dashed part of the orbit path shows where the satellite is in the earth's shadow,  

DLR